Location: Newark
(49.1939°N, 0.8136°E)
Time: 13:46:11
(UTC+00:00)

Envisat - Pass Details

Date: 20 November 2019
Orbit: 764 x 766 km, 98.1° (Epoch: 07 December)

Event Time Altitude Azimuth Distance (km) Brightness Sun altitude
Rises 16:40:38 0° 131° (SE) 3,225 6.0 -5.3°
Reaches altitude 10° 16:43:12 10° 120° (ESE) 2,302 5.1 -5.7°
Maximum altitude 16:47:28 28° 62° (ENE) 1,410 3.8 -6.3°
Drops below altitude 10° 16:51:45 10° 5° (N) 2,315 5.2 -6.9°
Sets 16:54:20 0° 354° (N) 3,245 6.1 -7.3°
